{"data":{"norad_id":67770,"epoch":"2026-09-20T14:09:54.707328Z","epoch_age_seconds":81420,"freshness":"FRESH","line1":"1 67770U 26030G   26263.59021652  .00000034  00000+0  33532-4 0  9993","line2":"2 67770  51.9007  58.7389 0000845 111.0026 249.1027 14.79930603 34216","mean_motion":14.79930603,"eccentricity":8.45e-5,"inclination_deg":51.9007,"raan_deg":58.7389,"arg_perigee_deg":111.0026,"mean_anomaly_deg":249.1027,"bstar":3.3532e-5,"rev_number":3421,"period_min":97.301859768353,"perigee_km":628.95104694367,"apogee_km":630.13534489678,"semimajor_km":7007.6801959202,"source":"CELESTRAK","updated_at":"2026-09-21T09:00:16.828600Z"}}